[[{"header":{"parameterUnit":"m.s-1","parameterCategory":1,"la1":30.2991,"la2":30.254,"lo1":-89.0895,"lo2":-89.0444,"dy":0.0017,"dx":0.0017,"nx":28,"ny":28,"refTime":"2023-03-17T21:00:00:Z","depth":0,"parameterNumber":2,"parameterNumberName":"U-component_of_WINDS"},"data":[0,0,0,0,0,0,0,0,0,0,0,0,0,0,0,0,0,0,0,0,0,0,0,0,0,0,0,0,0,0,0,0,0,0,0,0,0,0,0,0,0,0,0,0,0,0,0,0,0,0,0,0,0,0,0,0,0,0,0.8087,0.8086,0,0.8045,0.8044,0.8044,0.8019,0.8019,0.8019,0.8019,0.7976,0.7975,0.7974,0,0,0,0,0,0,0,0,0,0,0,0,0,0.8147,0.8146,0.8087,0.8086,0.8086,0.8045,0.8044,0.8044,0.8019,0.8019,0.8019,0.8018,0.7976,0.7975,0.7974,0,0,0,0,0,0,0,0,0,0,0,0,0,0.8115,0.8146,0.8087,0.8068,0.8066,0.8045,0.8044,0.8043,0.8019,0.8019,0.8019,0.8018,0.7977,0.7975,0.7973,0.7967,0,0,0.7969,0.7968,0,0,0,0,0,0,0,0,0.8116,0.8112,0.8072,0.807,0.8067,0.8037,0.805,0.8018,0.8019,0.8037,0.8019,0.8018,0.7996,0.7993,0.7986,0.7965,0.7963,0.7969,0.7968,0.7967,0.7967,0,0,0,0,0,0,0,0.8119,0.8114,0.807,0.8071,0.8068,0.8063,0.8058,0.8044,0.8018,0.8035,0.8033,0.8029,0.7995,0.7987,0.7984,0.7963,0.7969,0.7967,0.7966,0.7966,0.7937,0.7937,0,0,0,0,0,0,0.8124,0.8116,0.8071,0.8069,0.8092,0.8062,0.8056,0.8047,0.8018,0.8014,0.8029,0.8028,0.799,0.7986,0.7983,0.7974,0.7967,0.7966,0.7965,0.7936,0.7937,0.7937,0,0,0,0,0,0,0.8125,0.812,0.8073,0.8092,0.8086,0.8061,0.805,0.8046,0.8038,0.8013,0.8009,0.8025,0.799,0.7985,0.7972,0.7972,0.7965,0.7963,0.7936,0.7936,0.7937,0.7956,0,0,0,0,0,0,0.8127,0.8121,0.8117,0.8092,0.8085,0.8062,0.805,0.8045,0.8035,0.8033,0.8009,0.8005,0.7989,0.7974,0.797,0.797,0.7962,0.7936,0.7936,0.7937,0.7956,0.7957,0.7959,0,0,0,0,0,0.8129,0.8125,0.8117,0.8112,0.808,0.8062,0.8058,0.804,0.8036,0.8032,0.8017,0.8005,0.7973,0.7973,0.7968,0.7968,0.7936,0.7936,0.7937,0.7955,0.7957,0.7959,0,0,0,0,0,0,0.815,0.8121,0.8113,0.8099,0.8084,0.8058,0.8053,0.8043,0.8028,0.8027,0.8006,0.8,0.7989,0.7977,0.7977,0.7961,0.7953,0.7953,0.7969,0.7971,0.7972,0.7975,0.7961,0,0,0,0,0,0.8154,0.8141,0.8116,0.8107,0.81,0.8078,0.807,0.8057,0.804,0.8033,0.8016,0.8,0.7987,0.7978,0.7964,0.7954,0.7949,0.7952,0.7953,0.7955,0.7954,0.7949,0.7951,0.7938,0.7938,0.7938,0,0,0.816,0.8142,0.8136,0.8111,0.8097,0.8085,0.8072,0.806,0.8051,0.8031,0.8018,0.8005,0.7986,0.7975,0.7969,0.7964,0.7957,0.7955,0.7957,0.7955,0.795,0.7951,0.7952,0.7938,0.7938,0.7938,0,0,0.8165,0.8151,0.8142,0.8129,0.8108,0.8094,0.8092,0.8069,0.8059,0.8046,0.8031,0.802,0.7997,0.7984,0.7975,0.7977,0.7967,0.7974,0.7982,0.7977,0.7978,0.7979,0.798,0.7981,0.7973,0.7973,0.7973,0,0.8176,0.8157,0.8139,0.8127,0.8117,0.8099,0.8091,0.8079,0.8055,0.8049,0.8044,0.8016,0.8001,0.7987,0.7988,0.7981,0.7978,0.7976,0.7979,0.798,0.798,0.7982,0.7982,0.7974,0.7974,0.7974,0.7974,0,0.8171,0.8158,0.8154,0.8131,0.8121,0.8111,0.8092,0.8084,0.8073,0.806,0.8047,0.803,0.8012,0.8008,0.7997,0.7993,0.7991,0.7983,0.7975,0.7983,0.7984,0.7984,0.7976,0.7975,0.7975,0.7975,0,0,0.8187,0.8156,0.8155,0.8145,0.8122,0.8112,0.8102,0.8085,0.8079,0.8064,0.8055,0.8037,0.803,0.8019,0.8007,0.8003,0.8007,0.7996,0.7995,0.7999,0.8002,0.8008,0.8009,0.8,0.8,0.8,0.8004,0,0.8189,0.817,0.8154,0.8141,0.8129,0.8113,0.8105,0.809,0.8078,0.8067,0.8054,0.8041,0.8033,0.8027,0.8022,0.8008,0.8008,0.8007,0.7993,0.7992,0.7998,0.8009,0.8015,0.8019,0.8004,0.8004,0.8004,0,0.8188,0.8174,0.816,0.8139,0.8134,0.8127,0.8111,0.81,0.8084,0.8076,0.8065,0.8053,0.8042,0.8036,0.8022,0.8022,0.8016,0.8008,0.8008,0.8005,0.7999,0.8007,0.802,0.8021,0.8005,0.8005,0.8004,0,0.8202,0.8179,0.8168,0.816,0.8136,0.8131,0.8121,0.8104,0.8096,0.8082,0.8077,0.8062,0.8054,0.8044,0.8028,0.8025,0.8016,0.8009,0.801,0.801,0.8008,0.8008,0.802,0.8004,0.8004,0.8004,0.8004,0,0.8206,0.8198,0.8174,0.8167,0.8158,0.8141,0.8133,0.8121,0.8107,0.8098,0.8083,0.8076,0.8056,0.8046,0.8034,0.8025,0.8021,0.8015,0.8011,0.8016,0.8017,0.8011,0.801,0.8004,0.8004,0.8004,0.8004,0,0.8219,0.8202,0.8189,0.8168,0.8162,0.8157,0.8139,0.8132,0.812,0.8109,0.8105,0.8086,0.8074,0.8058,0.8041,0.8033,0.8025,0.802,0.803,0.8028,0.8031,0.8031,0.8038,0.8039,0.8023,0.8023,0.8024,0,0.8222,0.8215,0.8194,0.8187,0.8177,0.8166,0.8157,0.8141,0.8132,0.8114,0.811,0.8097,0.8085,0.8067,0.8052,0.8039,0.8033,0.8037,0.8031,0.8036,0.8034,0.8034,0.8034,0.8038,0.8039,0.8039,0.8039,0,0.8229,0.8222,0.821,0.8196,0.8186,0.8174,0.8162,0.8157,0.8138,0.8129,0.8117,0.8108,0.8091,0.8078,0.8064,0.8054,0.8043,0.8041,0.8041,0.8045,0.8051,0.8048,0.8034,0.8041,0.8041,0.804,0.804,0.804,0.8238,0.8232,0.8216,0.8203,0.8192,0.8181,0.8174,0.8162,0.8151,0.8135,0.8126,0.8114,0.81,0.8079,0.807,0.8061,0.8057,0.8056,0.8056,0.8056,0.8058,0.8053,0.8058,0.8058,0.8058,0.8058,0.8058,0,0.8245,0.8234,0.8223,0.8206,0.8197,0.8188,0.8174,0.8167,0.8157,0.8144,0.8133,0.812,0.8108,0.8092,0.808,0.8076,0.8071,0.8073,0.8073,0.8071,0.8062,0.8064,0.8077,0.8077,0.8077,0.8077,0.8077,0.8077,0.8247,0.8237,0.8228,0.8213,0.8202,0.819,0.8183,0.8173,0.8163,0.8148,0.8139,0.8129,0.8115,0.8102,0.8091,0.8087,0.8083,0.8087,0.8081,0.8073,0.8071,0.807,0.8071,0.8086,0.8086,0.8091,0.8091,0.8091]},{"header":{"parameterUnit":"m.s-1","parameterCategory":1,"la1":30.2991,"la2":30.254,"lo1":-89.0895,"lo2":-89.0444,"dy":0.0017,"dx":0.0017,"nx":28,"ny":28,"refTime":"2023-03-17T21:00:00:Z","depth":0,"parameterNumber":3,"parameterNumberName":"V-component_of_WINDS"},"data":[0,0,0,0,0,0,0,0,0,0,0,0,0,0,0,0,0,0,0,0,0,0,0,0,0,0,0,0,0,0,0,0,0,0,0,0,0,0,0,0,0,0,0,0,0,0,0,0,0,0,0,0,0,0,0,0,0,0,-9.1351,-9.1352,0,-9.146,-9.1461,-9.1462,-9.1388,-9.1384,-9.1381,-9.1378,-9.148,-9.1486,-9.1492,0,0,0,0,0,0,0,0,0,0,0,0,0,-9.1069,-9.1074,-9.1351,-9.1352,-9.1354,-9.146,-9.1461,-9.1463,-9.1388,-9.1384,-9.138,-9.1376,-9.1478,-9.1485,-9.1492,0,0,0,0,0,0,0,0,0,0,0,0,0,-9.1186,-9.1076,-9.135,-9.1329,-9.1329,-9.1459,-9.1461,-9.1463,-9.1389,-9.1384,-9.1379,-9.1374,-9.1476,-9.1485,-9.1493,-9.1648,0,0,-9.152,-9.1524,0,0,0,0,0,0,0,0,-9.1179,-9.1196,-9.1331,-9.1331,-9.133,-9.1405,-9.1399,-9.1525,-9.139,-9.1366,-9.1378,-9.1372,-9.1459,-9.1469,-9.15,-9.1653,-9.1657,-9.1521,-9.1526,-9.153,-9.1533,0,0,0,0,0,0,0,-9.1171,-9.1191,-9.1393,-9.1333,-9.1333,-9.1311,-9.1322,-9.1423,-9.1439,-9.1367,-9.1362,-9.1377,-9.1458,-9.1492,-9.1502,-9.1659,-9.1521,-9.1529,-9.1534,-9.1537,-9.1943,-9.1948,0,0,0,0,0,0,-9.1166,-9.1185,-9.139,-9.1397,-9.1241,-9.1321,-9.1333,-9.1386,-9.1438,-9.1441,-9.1381,-9.1373,-9.1479,-9.1492,-9.1505,-9.1689,-9.153,-9.1538,-9.1543,-9.1938,-9.1944,-9.195,0,0,0,0,0,0,-9.1161,-9.1185,-9.1386,-9.129,-9.1314,-9.1331,-9.1391,-9.1391,-9.1425,-9.1448,-9.1449,-9.1413,-9.1476,-9.1493,-9.1614,-9.1691,-9.1542,-9.155,-9.1931,-9.194,-9.1947,-9.2059,0,0,0,0,0,0,-9.1153,-9.1184,-9.1245,-9.1292,-9.1319,-9.1495,-9.1396,-9.1397,-9.1441,-9.1432,-9.1479,-9.1482,-9.1473,-9.1601,-9.1622,-9.1701,-9.1557,-9.1924,-9.1935,-9.1945,-9.2048,-9.207,-9.2088,0,0,0,0,0,-9.1143,-9.127,-9.1248,-9.1273,-9.1396,-9.15,-9.1515,-9.1505,-9.1448,-9.1508,-9.1523,-9.148,-9.168,-9.1614,-9.1637,-9.172,-9.1919,-9.1932,-9.1944,-9.2039,-9.2065,-9.2088,0,0,0,0,0,0,-9.1228,-9.1276,-9.1252,-9.1399,-9.1447,-9.1487,-9.1563,-9.1534,-9.1596,-9.1584,-9.1566,-9.1578,-9.1704,-9.1724,-9.165,-9.1872,-9.179,-9.1808,-9.1854,-9.1879,-9.1899,-9.1891,-9.1564,0,0,0,0,0,-9.1265,-9.1348,-9.1384,-9.1509,-9.1535,-9.1545,-9.159,-9.1579,-9.1626,-9.1645,-9.1668,-9.1713,-9.1786,-9.1834,-9.1902,-9.2051,-9.2059,-9.2119,-9.2139,-9.2155,-9.217,-9.2249,-9.2276,-9.1991,-9.1991,-9.1991,0,0,-9.134,-9.1376,-9.1429,-9.1528,-9.1563,-9.1647,-9.1562,-9.1655,-9.1716,-9.1657,-9.1774,-9.1793,-9.1841,-9.1977,-9.2038,-9.1997,-9.2251,-9.2171,-9.2184,-9.219,-9.2264,-9.2291,-9.2315,-9.1999,-9.1998,-9.1997,0,0,-9.1519,-9.1556,-9.1665,-9.1703,-9.1759,-9.1765,-9.1791,-9.1837,-9.1849,-9.1966,-9.1924,-9.1994,-9.2121,-9.2157,-9.2192,-9.2387,-9.2349,-9.2409,-9.2513,-9.259,-9.2612,-9.2632,-9.27,-9.2724,-9.2424,-9.2424,-9.2425,0,-9.1604,-9.1732,-9.1723,-9.182,-9.1863,-9.1818,-9.1926,-9.1962,-9.2036,-9.2066,-9.2021,-9.2178,-9.2208,-9.2351,-9.2399,-9.2429,-9.2456,-9.2403,-9.2611,-9.263,-9.2648,-9.2712,-9.2738,-9.2431,-9.243,-9.243,-9.2429,0,-9.1833,-9.1922,-9.2003,-9.2079,-9.2132,-9.2234,-9.2237,-9.2291,-9.2276,-9.2286,-9.2404,-9.2439,-9.2513,-9.2546,-9.2531,-9.2687,-9.266,-9.2613,-9.253,-9.2683,-9.2742,-9.2767,-9.2441,-9.2439,-9.2437,-9.2435,0,0,-9.2067,-9.214,-9.2169,-9.2203,-9.2262,-9.2329,-9.2428,-9.2504,-9.2549,-9.2602,-9.2683,-9.2791,-9.2749,-9.2788,-9.2776,-9.2844,-9.2994,-9.2788,-9.2789,-9.2824,-9.3166,-9.32,-9.3229,-9.297,-9.2975,-9.2979,-9.3161,0,-9.2249,-9.2425,-9.242,-9.2582,-9.2663,-9.2622,-9.2707,-9.2751,-9.2763,-9.2831,-9.2843,-9.292,-9.2859,-9.2883,-9.2948,-9.2962,-9.3062,-9.2949,-9.3042,-9.3045,-9.303,-9.326,-9.3296,-9.3467,-9.3185,-9.3189,-9.3192,0,-9.2484,-9.2548,-9.272,-9.2767,-9.2801,-9.2878,-9.2947,-9.3014,-9.3062,-9.3066,-9.3112,-9.3089,-9.3185,-9.3102,-9.3234,-9.3157,-9.3195,-9.3208,-9.3214,-9.322,-9.3127,-9.3271,-9.3521,-9.3546,-9.3229,-9.3226,-9.3223,0,-9.2636,-9.2765,-9.2884,-9.2915,-9.2973,-9.3029,-9.3055,-9.3098,-9.3144,-9.3203,-9.3232,-9.3301,-9.3338,-9.339,-9.3386,-9.3326,-9.3519,-9.3435,-9.3522,-9.3523,-9.3563,-9.356,-9.3821,-9.3591,-9.3591,-9.359,-9.359,0,-9.2838,-9.2944,-9.2953,-9.3026,-9.3143,-9.3136,-9.325,-9.327,-9.331,-9.3384,-9.3351,-9.342,-9.3411,-9.348,-9.3477,-9.3585,-9.3603,-9.3606,-9.3604,-9.3608,-9.3608,-9.3631,-9.3618,-9.3597,-9.3596,-9.3594,-9.3593,0,-9.3027,-9.3038,-9.3165,-9.3211,-9.3225,-9.3309,-9.3346,-9.3414,-9.3424,-9.3518,-9.354,-9.3554,-9.3634,-9.3635,-9.3725,-9.3723,-9.3855,-9.384,-9.384,-9.3836,-9.3923,-9.3914,-9.4206,-9.4243,-9.3991,-9.3993,-9.3995,0,-9.3154,-9.3235,-9.3291,-9.334,-9.3371,-9.345,-9.3497,-9.3493,-9.3543,-9.3604,-9.3664,-9.3741,-9.3802,-9.3931,-9.3947,-9.4016,-9.4001,-9.4098,-9.401,-9.4012,-9.4,-9.3994,-9.4001,-9.4115,-9.4118,-9.412,-9.4122,0,-9.3379,-9.3381,-9.3452,-9.3526,-9.3585,-9.3642,-9.3694,-9.3735,-9.3736,-9.3793,-9.3876,-9.3924,-9.4017,-9.4093,-9.416,-9.4183,-9.4152,-9.415,-9.4173,-9.4178,-9.4174,-9.4175,-9.3885,-9.4142,-9.414,-9.4139,-9.4138,-9.4137,-9.3539,-9.3609,-9.366,-9.3741,-9.3781,-9.3831,-9.3897,-9.3917,-9.3987,-9.4065,-9.4057,-9.4148,-9.4192,-9.4279,-9.4309,-9.4378,-9.4343,-9.4378,-9.4386,-9.4394,-9.4403,-9.4165,-9.439,-9.4389,-9.4389,-9.4388,-9.4388,0,-9.3761,-9.3792,-9.3867,-9.3943,-9.4006,-9.3975,-9.4032,-9.4085,-9.4167,-9.4213,-9.4275,-9.4369,-9.4443,-9.4467,-9.4537,-9.4588,-9.4575,-9.4606,-9.4601,-9.4607,-9.443,-9.4402,-9.4616,-9.4615,-9.4615,-9.4615,-9.4615,-9.4615,-9.3883,-9.4,-9.4008,-9.4143,-9.4172,-9.4265,-9.4299,-9.4344,-9.4381,-9.4489,-9.4551,-9.4568,-9.4604,-9.4677,-9.4742,-9.4747,-9.4773,-9.481,-9.4809,-9.4642,-9.462,-9.4598,-9.4571,-9.4816,-9.4817,-9.4979,-9.4981,-9.4982]}]]